Tracking 19706 objects as of 15-Jun-2019
HD Live streaming from Space Station
objects crossing your sky now

THORAD AGENA D DEB

Track THORAD AGENA D DEB now!
10-day predictions


NORAD ID: 5129
Int'l Code: 1970-025JN
Perigee: 930.6 km
Apogee: 1,236.9 km
Inclination: 99.3 °
Period: 106.8 minutes
Semi major axis: 7454 km
RCS: 0.0305 m2 (small)
Launch date: April 8, 1970
Source: United States (US)
Launch site: AIR FORCE WESTERN TEST RANGE (AFWTR)

Note: This is SATELLITE DEBRIS
aabbcc
Your satellite tracking list
Your tracking list is empty




NASA's NSSDC Master Catalog

Two Line Element Set (TLE):
1  5129U 70025JN  19165.88655278 +.00000363 +00000-0 +56572-3 0  9992
2  5129 099.2862 022.8054 0205422 058.7603 011.3829 13.48815891387864
Source of the keplerian elements: AFSPC